When you browse on this site, cookies collect data to enhance your experience and personalize the content and advertising you see.
Visit our Privacy Policy to learn more. By continuing to use the site, you agree to this use of cookies and data.
  • In Austria
  • List of Countries
  • For 7 days
  • Water Temperature
  • Weather Map
  • News
  • Weather Widgets
  • user-avatar
    Login

    Hourly Weather Coro

    Today, 21 January, Tuesday

    Time Temperature Precipitation Wind Pressure Humidity
    00:00 +26°C° 0 mm 5 mps 755 mmHg 93%
    01:00 +26°C° 0 mm 5 mps 755 mmHg 94%
    02:00 +26°C° 0 mm 5 mps 755 mmHg 94%
    03:00 +26°C° 0 mm 5 mps 755 mmHg 94%
    04:00 +26°C° 0 mm 5 mps 754 mmHg 95%
    05:00 +26°C° 0 mm 5 mps 755 mmHg 93%
    06:00 +27°C° 0 mm 5 mps 755 mmHg 91%
    07:00 +27°C° 0 mm 5 mps 755 mmHg 89%
    08:00 +28°C° 0 mm 5 mps 756 mmHg 83%
    09:00 +30°C° 0 mm 5 mps 756 mmHg 77%
    10:00 +32°C° 0 mm 5 mps 756 mmHg 71%
    11:00 +33°C° 0.1 mm 5 mps 755 mmHg 67%
    12:00 +34°C° 0.1 mm 6 mps 755 mmHg 63%
    13:00 +35°C° 0.1 mm 7 mps 754 mmHg 59%
    14:00 +34°C° 0 mm 7 mps 754 mmHg 63%
    15:00 +33°C° 0 mm 7 mps 753 mmHg 67%
    16:00 +33°C° 0 mm 7 mps 753 mmHg 70%
    17:00 +30°C° 0 mm 7 mps 753 mmHg 76%
    18:00 +29°C° 0 mm 6 mps 753 mmHg 81%
    19:00 +27°C° 0 mm 6 mps 754 mmHg 87%
    20:00 +27°C° 0 mm 6 mps 754 mmHg 88%
    21:00 +26°C° 0 mm 5 mps 755 mmHg 89%
    22:00 +26°C° 0 mm 5 mps 756 mmHg 90%
    23:00 +25°C° 0 mm 4 mps 755 mmHg 91%

    Tomorrow, 22 January, Wednesday

    Time Temperature Precipitation Wind Pressure Humidity
    00:00 +25°C° 0 mm 4 mps 755 mmHg 92%
    01:00 +25°C° 0 mm 4 mps 754 mmHg 92%
    02:00 +25°C° 0 mm 4 mps 754 mmHg 93%
    03:00 +25°C° 0 mm 4 mps 754 mmHg 93%
    04:00 +25°C° 0 mm 4 mps 754 mmHg 94%
    05:00 +25°C° 0 mm 4 mps 754 mmHg 92%
    06:00 +26°C° 0 mm 4 mps 754 mmHg 89%
    07:00 +26°C° 0 mm 4 mps 755 mmHg 87%
    08:00 +28°C° 0 mm 4 mps 755 mmHg 78%
    09:00 +30°C° 0 mm 3 mps 756 mmHg 69%
    10:00 +33°C° 0 mm 3 mps 756 mmHg 60%
    11:00 +34°C° 0.1 mm 4 mps 755 mmHg 58%
    12:00 +35°C° 0.1 mm 4 mps 755 mmHg 56%
    13:00 +36°C° 0.1 mm 5 mps 754 mmHg 53%
    14:00 +35°C° 0.7 mm 5 mps 754 mmHg 59%
    15:00 +34°C° 0.7 mm 5 mps 753 mmHg 65%
    16:00 +33°C° 0.7 mm 5 mps 753 mmHg 71%
    17:00 +30°C° 0.1 mm 4 mps 753 mmHg 77%
    18:00 +29°C° 0.1 mm 4 mps 754 mmHg 83%
    19:00 +27°C° 0.1 mm 3 mps 754 mmHg 89%
    20:00 +27°C° 0 mm 3 mps 755 mmHg 91%
    21:00 +26°C° 0 mm 3 mps 755 mmHg 92%
    22:00 +26°C° 0 mm 3 mps 756 mmHg 93%
    23:00 +26°C° 0 mm 3 mps 755 mmHg 93%

    Day after tomorrow, 23 January, Thursday

    Time Temperature Precipitation Wind Pressure Humidity
    00:00 +25°C° 0 mm 2 mps 755 mmHg 94%
    01:00 +25°C° 0 mm 2 mps 755 mmHg 94%
    02:00 +25°C° 0 mm 2 mps 754 mmHg 94%
    03:00 +25°C° 0 mm 1 mps 754 mmHg 94%
    04:00 +25°C° 0 mm 1 mps 754 mmHg 94%
    05:00 +25°C° 0 mm 1 mps 754 mmHg 92%
    06:00 +26°C° 0 mm 1 mps 755 mmHg 90%
    07:00 +26°C° 0 mm 1 mps 755 mmHg 88%
    08:00 +28°C° 0.1 mm 2 mps 756 mmHg 82%
    09:00 +29°C° 0.1 mm 2 mps 756 mmHg 75%
    10:00 +31°C° 0.1 mm 2 mps 756 mmHg 69%
    11:00 +33°C° 0.1 mm 3 mps 756 mmHg 65%
    12:00 +33°C° 0.1 mm 4 mps 755 mmHg 61%
    13:00 +34°C° 0.1 mm 4 mps 755 mmHg 57%
    14:00 +33°C° 0 mm 4 mps 754 mmHg 61%
    15:00 +33°C° 0 mm 4 mps 754 mmHg 65%
    16:00 +32°C° 0 mm 4 mps 753 mmHg 69%
    17:00 +29°C° 0 mm 4 mps 754 mmHg 76%
    18:00 +28°C° 0 mm 3 mps 754 mmHg 83%
    19:00 +26°C° 0 mm 3 mps 755 mmHg 89%
    20:00 +26°C° 0 mm 2 mps 755 mmHg 90%
    21:00 +25°C° 0 mm 2 mps 756 mmHg 91%
    22:00 +25°C° 0 mm 2 mps 756 mmHg 92%
    23:00 +24°C° 0 mm 2 mps 756 mmHg 92%

    24 January, Friday

    Time Temperature Precipitation Wind Pressure Humidity
    00:00 +24°C° 0 mm 2 mps 755 mmHg 93%
    01:00 +24°C° 0 mm 2 mps 755 mmHg 93%
    02:00 +24°C° 0 mm 2 mps 755 mmHg 93%
    03:00 +24°C° 0 mm 1 mps 755 mmHg 92%
    04:00 +24°C° 0 mm 1 mps 755 mmHg 92%
    05:00 +24°C° 0 mm 1 mps 755 mmHg 89%
    06:00 +25°C° 0 mm 1 mps 756 mmHg 86%
    07:00 +25°C° 0 mm 2 mps 756 mmHg 83%
    08:00 +28°C° 0 mm 2 mps 757 mmHg 73%
    09:00 +30°C° 0 mm 2 mps 757 mmHg 63%
    10:00 +32°C° 0 mm 2 mps 758 mmHg 53%
    11:00 +34°C° 0 mm 3 mps 757 mmHg 52%
    12:00 +35°C° 0 mm 4 mps 756 mmHg 50%
    13:00 +35°C° 0 mm 5 mps 756 mmHg 49%
    14:00 +34°C° 0 mm 5 mps 755 mmHg 53%
    15:00 +34°C° 0 mm 5 mps 755 mmHg 57%
    16:00 +33°C° 0 mm 6 mps 754 mmHg 61%
    17:00 +30°C° 0 mm 5 mps 755 mmHg 71%
    18:00 +28°C° 0 mm 4 mps 755 mmHg 80%
    19:00 +26°C° 0 mm 4 mps 756 mmHg 90%
    20:00 +25°C° 0 mm 4 mps 756 mmHg 91%
    21:00 +25°C° 0 mm 3 mps 757 mmHg 91%
    22:00 +24°C° 0 mm 3 mps 757 mmHg 92%
    23:00 +24°C° 0 mm 3 mps 757 mmHg 92%

    25 January, Saturday

    Time Temperature Precipitation Wind Pressure Humidity
    00:00 +24°C° 0 mm 3 mps 757 mmHg 93%
    01:00 +24°C° 0 mm 2 mps 756 mmHg 93%
    02:00 +24°C° 0 mm 2 mps 756 mmHg 94%
    03:00 +24°C° 0 mm 2 mps 756 mmHg 94%
    04:00 +24°C° 0 mm 2 mps 756 mmHg 95%
    05:00 +25°C° 0 mm 2 mps 757 mmHg 92%
    06:00 +25°C° 0 mm 1 mps 757 mmHg 90%
    07:00 +26°C° 0 mm 1 mps 758 mmHg 88%
    08:00 +28°C° 0 mm 2 mps 758 mmHg 78%
    09:00 +29°C° 0 mm 2 mps 758 mmHg 69%
    10:00 +31°C° 0 mm 3 mps 758 mmHg 59%
    11:00 +33°C° 0 mm 4 mps 757 mmHg 56%
    12:00 +34°C° 0 mm 4 mps 757 mmHg 53%
    13:00 +35°C° 0 mm 5 mps 756 mmHg 50%
    14:00 +34°C° 0 mm 5 mps 756 mmHg 57%
    15:00 +33°C° 0 mm 5 mps 755 mmHg 63%
    16:00 +32°C° 0 mm 6 mps 755 mmHg 70%
    17:00 +29°C° 0 mm 5 mps 755 mmHg 77%
    18:00 +28°C° 0 mm 5 mps 756 mmHg 85%
    19:00 +26°C° 0 mm 4 mps 757 mmHg 92%
    20:00 +26°C° 0 mm 4 mps 757 mmHg 93%
    21:00 +26°C° 0 mm 4 mps 757 mmHg 93%
    22:00 +25°C° 0 mm 3 mps 757 mmHg 94%
    23:00 +25°C° 0 mm 3 mps 757 mmHg 94%

    26 January, Sunday

    Time Temperature Precipitation Wind Pressure Humidity
    00:00 +25°C° 0 mm 3 mps 757 mmHg 94%
    01:00 +25°C° 0 mm 3 mps 757 mmHg 95%
    02:00 +25°C° 0 mm 3 mps 756 mmHg 95%
    03:00 +25°C° 0 mm 3 mps 756 mmHg 95%
    04:00 +24°C° 0 mm 2 mps 756 mmHg 95%
    05:00 +25°C° 0 mm 2 mps 756 mmHg 92%
    06:00 +25°C° 0 mm 2 mps 757 mmHg 90%
    07:00 +26°C° 0 mm 3 mps 757 mmHg 88%
    08:00 +28°C° 0 mm 3 mps 758 mmHg 78%
    09:00 +30°C° 0 mm 3 mps 758 mmHg 67%
    10:00 +33°C° 0 mm 3 mps 758 mmHg 57%
    11:00 +33°C° 0 mm 4 mps 757 mmHg 55%
    12:00 +34°C° 0 mm 5 mps 757 mmHg 52%
    13:00 +35°C° 0 mm 6 mps 756 mmHg 50%
    14:00 +34°C° 0 mm 6 mps 756 mmHg 54%
    15:00 +34°C° 0 mm 6 mps 755 mmHg 57%
    16:00 +33°C° 0 mm 7 mps 755 mmHg 61%
    17:00 +30°C° 0 mm 6 mps 755 mmHg 70%
    18:00 +28°C° 0 mm 6 mps 756 mmHg 79%
    19:00 +26°C° 0 mm 5 mps 756 mmHg 88%
    20:00 +26°C° 0 mm 5 mps 756 mmHg 90%
    21:00 +25°C° 0 mm 4 mps 757 mmHg 92%
    22:00 +25°C° 0 mm 4 mps 757 mmHg 93%
    23:00 +25°C° 0 mm 3 mps 757 mmHg 94%
    Show more